• MPC Preparation (Info)

  • MPEC 2014-F25 : 2014 FZ

    The following Minor Planet Electronic Circular may be linked-to from your own Web pages, but must not otherwise be redistributed electronically.

    A form allowing access to any MPEC is at the bottom of this page.


    Read MPEC 2014-F24 Read MPEC 2014-F26


    M.P.E.C. 2014-F25                                Issued 2014 Mar. 23, 16:37 UT
    
         The Minor Planet Electronic Circulars contain information on unusual
             minor planets and routine data on comets.  They are published
       on behalf of Commission 20 of the International Astronomical Union by the
              Minor Planet Center, Smithsonian Astrophysical Observatory,
                              Cambridge, MA 02138, U.S.A.
    
                 Prepared using the Tamkin Foundation Computer Network
    
                                  MPC@CFA.HARVARD.EDU
                URL https://www.minorplanetcenter.net/    ISSN 1523-6714
    
                                        2014 FZ
    
    Observations:
         K14F00Z* C2014 03 21.40522 14 04 24.22 +27 09 18.6          19.4 VqEF025G96
         K14F00Z  C2014 03 21.40940 14 04 29.36 +27 08 33.0          20.0 VqEF025G96
         K14F00Z  C2014 03 21.41358 14 04 34.54 +27 07 47.0          20.0 VqEF025G96
         K14F00Z  C2014 03 21.41777 14 04 39.64 +27 07 01.4          19.9 VqEF025G96
         K14F00Z  C2014 03 21.44101 14 05 08.41 +27 02 43.9          20.1 VqEF025G96
         K14F00Z  C2014 03 21.44134 14 05 08.81 +27 02 39.7          20.4 VqEF025G96
         K14F00Z  C2014 03 21.44166 14 05 09.25 +27 02 36.3          20.2 VqEF025G96
         K14F00Z  C2014 03 21.44198 14 05 09.61 +27 02 33.0          20.0 VqEF025G96
         K14F00Z  C2014 03 21.46318 14 05 35.97 +26 58 33.8          20.2 VqEF025G96
         K14F00Z  C2014 03 21.46519 14 05 38.51 +26 58 10.9          20.6 VqEF025G96
         K14F00Z  C2014 03 21.46720 14 05 41.04 +26 57 48.2          19.5 VqEF025G96
         K14F00Z  C2014 03 21.46921 14 05 43.49 +26 57 25.7          20.2 VqEF025G96
         K14F00Z  C2014 03 22.40157 14 27 58.12 +23 53 11.4          19.8 VqEF025G96
         K14F00Z  C2014 03 22.40982 14 28 08.58 +23 51 26.6          20.5 VqEF025G96
         K14F00Z  C2014 03 22.41807 14 28 19.08 +23 49 41.3          19.9 VqEF025G96
         K14F00Z  C2014 03 22.42632 14 28 29.57 +23 47 54.8          20.3 VqEF025G96
         K14F00Z KC2014 03 23.02166 14 43 00.05 +21 33 04.8          19.9 RqEF025J95
         K14F00Z KC2014 03 23.03627 14 43 19.59 +21 29 47.0          20.1 RqEF025J95
         K14F00Z KC2014 03 23.05091 14 43 39.11 +21 26 27.9          20.2 RqEF025J95
         K14F00Z KC2014 03 23.40638 14 52 00.80 +20 04 04.2          19.9 RqEF025H36
         K14F00Z KC2014 03 23.41431 14 52 10.93 +20 02 08.6          19.7 RqEF025H36
         K14F00Z KC2014 03 23.42224 14 52 21.32 +20 00 12.2          19.4 RqEF025H36
         K14F00Z KC2014 03 23.43174 14 52 33.52 +19 57 52.9          19.9 RqEF025H36
         K14F00Z  C2014 03 23.50574 14 54 14.85 +19 40 34.6          20.3 VqEF025G96
         K14F00Z  C2014 03 23.50757 14 54 17.22 +19 40 07.0          19.9 VqEF025G96
         K14F00Z  C2014 03 23.50819 14 54 18.02 +19 39 57.9          20.2 VqEF025G96
    
    Observer details:
    G96 Mt. Lemmon Survey.  Observers R. A. Kowalski, R. E. Hill.  Measurers
        E. J. Christensen, A. R. Gibbs, A. D. Grauer, R. E. Hill, J. A. Johnson,
        R. A. Kowalski, S. M. Larson, F. C. Shelly.  1.5-m reflector + CCD.
    H36 Sandlot Observatory, Scranton.  Observer G. Hug.  0.56-m reflector + CCD.
    J95 Great Shefford.  Observer P. Birtwhistle.  0.40-m f/6.0 Schmidt-Cassegrain
        + CCD.
    
    Orbital elements:
    2014 FZ                                                  Earth MOID = 0.0058 AU
    Epoch 2014 May 23.0 TT = JDT 2456800.5                  MPC
    M  30.78933              (2000.0)            P               Q
    n   0.61480444     Peri.  176.15892     -0.96823910     +0.24967482
    a   1.3697607      Node    18.31585     -0.23050323     -0.87085423
    e   0.2652212      Incl.    2.41626     -0.09685716     -0.42340925
    P   1.60           H   26.9           G   0.15           U   6
    Residuals in seconds of arc
    140321 G96  0.2+  0.1+    140321 G96  0.2+  0.3-    140323 J95  0.3-  0.0
    140321 G96  0.0   0.1+    140321 G96  0.5+  0.1-    140323 H36  1.0+  0.0
    140321 G96  0.4+  0.1-    140321 G96  0.4-  0.3+    140323 H36  0.6-  0.1+
    140321 G96  0.5-  0.2+    140322 G96  0.1-  0.2-    140323 H36  1.2+  0.4-
    140321 G96  0.1-  0.3+    140322 G96  0.3-  0.0     140323 H36  0.3-  0.2-
    140321 G96  0.2-  0.2-    140322 G96  0.1+  0.2+    140323 G96  0.1-  0.4+
    140321 G96  0.4+  0.0     140322 G96  0.2+  0.3-    140323 G96  0.2-  0.2+
    140321 G96  0.1-  0.2+    140323 J95  0.2+  0.0     140323 G96  0.2-  0.4+
    140321 G96  0.2-  0.2-    140323 J95  0.1-  0.1-
    
    Ephemeris:
    2014 FZ                  a,e,i = 1.37, 0.27, 2                   q = 1.0065
    Date    TT    R. A. (2000) Decl.     Delta      r     Elong.  Phase     V
    2014 02 21    10 08 11.3 +35 26 03   0.08549 1.0671   155.2    22.8    22.8
    ...
    2014 03 08    10 58 18.6 +38 25 09   0.04671 1.0318   146.5    32.1    21.7
    ...
    2014 03 16    12 19 07.5 +36 36 22   0.02957 1.0188   144.3    34.7    20.7
    ...
    2014 03 22    14 18 22.0 +25 17 05   0.02079 1.0120   138.6    40.6    20.1
    2014 03 23    14 42 16.6 +21 42 10   0.02004 1.0111   136.1    43.1    20.1
    2014 03 24    15 06 17.1 +17 39 53   0.01956 1.0103   133.0    46.2    20.1
    ...
    2014 03 30    17 08 50.6 -07 25 29   0.02270 1.0071   111.3    67.5    21.1
    ...
    2014 04 07    18 35 05.6 -23 55 22   0.03629 1.0071    98.9    79.1    22.5
    ...
    2014 04 22    19 34 15.0 -32 35 50   0.06693 1.0203   101.3    75.0    23.7
    
    A. U. Tomatic                (C) Copyright 2014 MPC           M.P.E.C. 2014-F25
    

    Read MPEC 2014-F24 Read MPEC 2014-F26


    MPEC number:

    Enter an MPEC number in one of the following forms:

    • 1997-B01 (the full form)
    • J97B01 (the packed version of the full form)
    • B01 (the abbreviated form)